Torna al catalogo

COSMOS 970 DEB

AttivoLEO
NORAD 64996·DEBRIS·🇷🇺 Russia

Lanciato Dec 21, 1977 da Baikonur Cosmodrome

Loading…

Prossimi Passaggi (prossime 24 ore)

TLE

AggiornatoSource: Space-Track

Epoca: Sep 14, 2026, 22:29 UTC

1 64996U 77121DH  26257.93746233  .00000363  00000-0  41862-3 0  9997
2 64996  65.8381 234.7464 0116063  32.8083 328.0118 13.78264450643756

Traccia COSMOS 970 DEB in tempo reale con AllMySat

Download on the App Store